Weather in Gympie

Australia     26°11′18″S   152°39′29″E
temp.,
°C
wind,
m/s
gust,
m/s
humid.,
%
clouds,
%
prec.,
mm/h
press.,
hPa
HPBL,
m
20 april, tue
tue2001:00+13sw11930 0.0 101811
04:00+13wsw11950 0.0 101711
07:00+14w11870 0.0 101937
10:00+23nw22520 0.0 1019932
13:00+26wnw12370 0.0 10151728
16:00+25ne13460 0.0 1014347
19:00+17n12810 0.0 101639
22:00+15wnw11910 0.0 101718
21 april, wed
wed2101:00+14wnw11930 0.0 101615
04:00+13nw11950 0.0 101425
07:00+15nw12883 0.0 101676
10:00+24nw47513 0.0 1015884
13:00+28wnw47390 0.0 10121927
16:00+24w115698 0.0 101118
19:00+20nnw11720 0.0 101316
22:00+17wnw11900 0.0 101411
22 april, thu
thu2201:00+15sw11690 0.0 101411
04:00+13sw11530 0.0 101311
07:00+14sw11560 0.0 101530
10:00+23sw243895 0.0 1015657
13:00+26sw3531100 0.0 10131407
16:00+23wnw1148100 0.0 101246
19:00+19wsw124996 0.0 101554
22:00+18wsw1146100 0.0 101618
23 april, fri
fri2301:00+15ssw1148100 0.0 101520
04:00+12w11511 0.0 101511
07:00+12sw115439 0.0 101727
10:00+21s23300 0.0 1018655
13:00+24se1224100 0.0 10151279
16:00+20e366090 0.0 1015383
19:00+15s118787 0.0 101813
22:00+14s1194100 0.0 101919
24 april, sat
sat2401:00+14s1192100 0.0 101923
04:00+14s1188100 0.0 101837
07:00+15s1384100 0.0 102086
10:00+20se2463100 0.0 1021732
13:00+22se2356100 0.0 10181198
16:00+21ese2462100 0.0 1018802
19:00+15se1187100 0.0 102013
22:00+15s2288100 0.0 102140